Flag for U.S.A. Weather past 2 weeks in Stamford, Connecticut, U.S.A.

Now
30 °F

Clear.


Feels Like: 24 °F
Forecast: 19 / 27 °F
Wind: 6 mph from Northwest

Location: Westchester County Airport

Current Time: Jan 25, 2015 at 8:06:49 PM

Latest Report: Jan 25, 2015 at 6:56 PM


Visibility: 10 mi

Pressure: 29.92 "Hg

Humidity: 43%

Dew point: 10 °F

Location of StamfordLocation

Historic Weather in Stamford — Graph

°F

Stamford temperature yesterday

Maximum temperature yesterday: 35 °F (at 1:56 PM)
Minimum temperature yesterday: 30 °F (at 4:04 AM)
Average temperature yesterday: 33 °F

Past Weeks' High & Low Weather Summary

 TemperatureHumidityPressure
High42 °F (Jan 18, 3:56 PM)100% (Jan 12, 1:04 PM)30.68 "Hg (Jan 12, 1:04 PM)
Low11 °F (Jan 13, 9:56 PM)26% (Jan 17, 2:56 PM)29.27 "Hg (Jan 24, 3:56 PM)
Average29 °F63%30.11 "Hg
* Reported Jan 10 6:56 PM — Jan 25 6:56 PM, Stamford, Weather by CustomWeather, © 2014

Note: Actual official high and low records may vary slightly from our data, if they occured in-between our weather recording intervals... More about our weather records

Advertising

Stamford weather history for previous 24 hours

 ConditionsComfort  
Time TempWeatherWind HumidityBarometerVisibility
6:56 PM
Jan 25
30 °FClear.6 mph43%29.92 "Hg10 mi
5:56 PM32 °FClear.6 mph40%29.88 "Hg10 mi
4:56 PM33 °FSunny.12 mph40%29.83 "Hg10 mi
3:56 PM34 °FSunny.16 mph40%29.82 "Hg10 mi
2:56 PM35 °FPassing clouds.14 mph38%29.78 "Hg10 mi
1:56 PM36 °FSunny.18 mph34%29.78 "Hg10 mi
12:56 PM37 °FPassing clouds.15 mph39%29.77 "Hg10 mi
11:56 AM37 °FPassing clouds.15 mph48%29.73 "Hg10 mi
10:56 AM37 °FPassing clouds.13 mph54%29.72 "Hg10 mi
9:56 AM38 °FPartly sunny.12 mph53%29.71 "Hg10 mi
8:56 AM36 °FPartly sunny.7 mph67%29.68 "Hg10 mi
7:56 AM34 °FScattered clouds.6 mph70%29.65 "Hg10 mi
6:56 AM33 °FPassing clouds.6 mph70%29.62 "Hg10 mi
5:56 AM33 °FPartly cloudy.7 mph70%29.60 "Hg10 mi
4:56 AM33 °FPassing clouds.9 mph70%29.57 "Hg10 mi
3:56 AM34 °FPassing clouds.8 mph70%29.56 "Hg10 mi
2:56 AM34 °FPassing clouds.9 mph70%29.54 "Hg10 mi
1:56 AM34 °FPassing clouds.17 mph67%29.51 "Hg10 mi
12:56 AM33 °FPassing clouds.13 mph70%29.48 "Hg10 mi
11:56 PM
Jan 24
33 °FOvercast.14 mph70%29.46 "Hg10 mi
10:56 PM33 °FPassing clouds.14 mph66%29.44 "Hg10 mi
9:56 PM33 °FClear.6 mph66%29.41 "Hg9 mi
8:56 PM35 °FClear.12 mph70%29.39 "Hg8 mi
Weather by CustomWeather, © 2014

See weather overviewHow to use our weather pages